Retour au catalogue

COSMOS 2251 DEB

ActifLEO
NORAD 34127·DEBRIS·🇷🇺 Russia

Lancé Jun 16, 1993 depuis Plesetsk Cosmodrome

Loading…

Prochains Passages (prochaines 24 heures)

TLE

FraisSource: Space-Track

Époque: Sep 14, 2026, 18:31 UTC

1 34127U 93036KY  26257.77168017  .00003301  00000-0  11244-2 0  9998
2 34127  74.1743 264.0964 0109754  23.8100 150.9921 14.33517126907248

Suivez COSMOS 2251 DEB en temps réel avec AllMySat

Download on the App Store